This demonstration page uses our WeatherBlox Daily Observations layout. Learn more.

Left ArrowRight Arrow

34.74481, -87.66753

Hourly Observations for October 16, 2016

Temp ( °F °C ) Dew Point ( °F °C ) Humidity (%) Winds ( mph kmh ) Pressure ( in mb ) Visibility ( mi km ) Precip ( " mm )
12:53 am 00:53 Clear 64 17.8 53 11.7 68 68 SE 5 7 30.14 1021 10 16 0.00 0.00
1:53 am 01:53 Clear 62 16.7 53 11.7 73 73 SE 6 9 30.14 1021 10 16 0.00 0.00
2:53 am 02:53 Clear 63 17.2 55 12.8 76 76 SE 5 7 30.15 1021 10 16 0.00 0.00
3:53 am 03:53 Mostly Cloudy 61 16.1 54 12.2 78 78 ESE 5 7 30.15 1021 10 16 0.00 0.00
4:53 am 04:53 Clear 63 17.2 57 13.9 81 81 ESE 3 6 30.16 1022 10 16 0.00 0.00
5:53 am 05:53 Partly Cloudy 62 16.7 58 14.4 86 86 SE 3 6 30.17 1022 10 16 0.00 0.00
6:53 am 06:53 Clear 62 16.7 58 14.4 86 86 Calm 30.17 1022 10 16 0.00 0.00
7:53 am 07:53 Sunny 64 17.8 60 15.6 87 87 E 6 9 30.16 1022 10 16 0.00 0.00
8:53 am 08:53 Sunny 70 21.1 62 16.7 76 76 SE 8 13 30.17 1022 10 16 0.00 0.00
9:30 am 09:30 Mostly Cloudy 72 22.2 62 16.7 71 71 SE 7 11 30.15 1021 10 16 0.00 0.00
9:53 am 09:53 Cloudy 74 23.3 63 17.2 69 69 VRB 6 9 30.16 1022 10 16 0.00 0.00
10:53 am 10:53 Mostly Cloudy 78 25.6 63 17.2 60 60 SSE 7 11 30.16 1021 10 16 0.00 0.00
11:02 am 11:02 Mostly Cloudy 77 25 63 17.2 62 62 S 7 11 30.15 1021 10 16 0.00 0.00
11:53 am 11:53 Mostly Cloudy 81 27.2 61 16.1 51 51 SSE 9 15 30.14 1021 10 16 0.00 0.00
12:53 pm 12:53 Mostly Sunny 81 27.2 59 15 47 47 S 8 13 30.10 1019 10 16 0.00 0.00
1:53 pm 13:53 Partly Cloudy 84 28.9 58 14.4 41 41 SSE 10 17 30.06 1018 10 16 0.00 0.00
2:53 pm 14:53 Partly Cloudy 84 28.9 57 13.9 40 40 Calm 30.04 1017 10 16 0.00 0.00
3:53 pm 15:53 Sunny 86 30 55 12.8 35 35 S 9 15 30.02 1017 10 16 0.00 0.00
4:53 pm 16:53 Sunny 84 28.9 56 13.3 38 38 S 9 15 30.01 1016 10 16 0.00 0.00
5:53 pm 17:53 Sunny 80 26.7 58 14.4 47 47 S 8 13 30.01 1016 10 16 0.00 0.00
6:53 pm 18:53 Clear 75 23.9 59 15 58 58 SSE 7 11 30.03 1017 10 16 0.00 0.00
7:53 pm 19:53 Clear 73 22.8 59 15 62 62 SSE 7 11 30.04 1017 10 16 0.00 0.00
8:53 pm 20:53 Clear 70 21.1 59 15 68 68 SSE 6 9 30.05 1018 10 16 0.00 0.00
9:53 pm 21:53 Clear 69 20.6 59 15 70 70 SSE 6 9 30.05 1018 10 16 0.00 0.00
10:53 pm 22:53 Clear 67 19.4 59 15 76 76 SE 5 7 30.05 1018 10 16 0.00 0.00
11:53 pm 23:53 Clear 67 19.4 59 15 76 76 SE 5 7 30.04 1017 10 16 0.00 0.00

Powered by AerisWeather